Location: Turtle Rock Observatory
(36.6913°N, 81.9708°W)
Time: 00:43:09
(UTC-04:00)

Daily predictions for brighter satellites

Satellite Brightness Start Highest point End
(mag) Time Altitude Azimuth Time Altitude Azimuth Time Altitude Azimuth
Cosmos 2263 Rocket 4.4 00:21:52 10° NNW 00:23:33 20° NW 00:23:33 20° NW
Cosmos 2322 Rocket 4.5 00:29:50 19° NW 00:29:50 19° NW 00:32:49 10° N
ATLAS CENTAUR R/B 4.4 00:55:09 75° NNW 00:55:09 75° NNW 01:17:51 10° NE
SL-16 R/B 4.5 02:19:06 19° NNE 02:19:06 19° NNE 02:20:41 10° NNE
Cosmos 2237 Rocket 4.5 02:23:22 19° N 02:23:22 19° N 02:25:04 10° N
ATLAS 3B R/B 4.1 02:56:06 33° NNW 02:56:06 33° NNW 03:01:47 10° NNE
CZ-2D R/B 4.0 03:20:37 10° NE 03:23:57 24° ENE 03:23:57 24° ENE
Cosmos 1943 4.5 03:29:24 36° ENE 03:29:24 36° ENE 03:33:05 10° NNE
CZ-4C R/B 3.7 03:33:52 29° NNW 03:33:52 29° NNW 03:37:29 10° NNE
Cosmos 2369 Rocket 3.3 03:35:46 10° N 03:41:02 40° ENE 03:41:29 39° ENE
ARIANE 5 R/B 3.8 03:36:45 10° NNE 03:40:24 39° NE 03:40:24 39° NE
USA 234 3.2 03:41:55 10° NE 03:47:57 77° ENE 03:47:57 77° ENE
SL-16 R/B 2.9 03:52:07 53° ESE 03:53:02 58° ENE 03:59:06 10° N
Resurs 1-4 Rocket 2.7 03:54:15 10° NNE 03:58:41 52° ENE 03:58:41 52° ENE
SL-16 R/B 4.4 04:00:59 14° NW 04:00:59 14° NW 04:02:55 10° NNW
Cosmos 1943 Rocket 4.2 03:59:11 10° N 04:03:57 27° ENE 04:08:38 10° ESE
NOSS 3-2 (A) 4.1 04:04:36 44° NW 04:04:36 44° NW 04:10:20 10° NNE
Cosmos 2251 Rocket 4.4 04:15:49 41° NNW 04:15:49 41° NNW 04:19:32 10° N
Cosmos 1709 Rocket 4.1 04:09:20 10° N 04:15:41 71° E 04:17:25 49° SSE
NOSS 3-3 (A) 4.3 04:09:29 10° NW 04:17:04 79° WSW 04:25:02 10° SSE
NOSS 3-3 (C) 4.3 04:09:35 10° NW 04:17:10 79° WSW 04:25:09 10° SSE
CENTAUR R/B 3.0 04:19:17 44° SE 04:20:24 49° ESE 04:26:44 10° NE
NOSS 3-2 (C) 4.0 04:20:58 44° NW 04:21:00 44° NW 04:27:17 10° NNE
Cosmos 1733 Rocket 3.6 04:27:33 10° N 04:31:52 55° E 04:32:11 53° E
ATLAS 5 CENTAUR R/B 1.8 04:33:28 74° N 04:33:28 74° N 04:38:15 10° NNE
ARGOS Delta rocket 4.2 04:30:35 10° NNE 04:34:52 51° E 04:35:21 48° ESE
Spot 3 4.5 04:33:34 10° N 04:39:00 80° WNW 04:39:31 72° SW
UNKNOWN OBJECT B 3.9 04:41:58 10° N 04:44:16 35° N 04:44:16 35° N
Meteor 2-10 4.3 04:45:55 54° WNW 04:45:55 54° WNW 04:51:14 10° N
Cosmos 839 Rocket 4.3 04:40:22 10° NW 04:47:53 53° WSW 04:49:55 40° SSW
Cosmos 1869 3.5 04:50:13 62° N 04:50:13 62° N 04:53:35 10° N
Cosmos 1933 4.1 04:55:34 33° SSE 04:57:04 52° E 05:01:04 10° NNE
CZ-4B R/B 3.7 04:54:33 10° NNE 04:58:05 43° E 04:59:29 30° SSE
BREEZE-M DEB (TANK) 4.0 04:59:15 34° ESE 04:59:15 34° ESE 05:01:53 10° ENE
Cosmos 1908 Rocket 4.4 04:56:20 10° N 05:00:36 49° E 05:04:48 10° SSE
Okean O Rocket 1.6 04:58:14 10° NNE 05:02:43 83° ESE 05:04:08 44° S
CZ-2D R/B 3.6 04:58:40 10° N 05:02:58 57° WNW 05:03:05 57° W
CZ-2D R/B 2.8 05:00:20 10° N 05:05:02 34° WNW 05:05:16 34° WNW
Cosmos 1302 Rocket 4.1 05:02:02 10° NNW 05:07:04 49° WSW 05:07:50 45° SW
Atlas Centaur 2 3.3 05:07:31 18° SSE 05:08:16 19° SSE 05:11:47 10° ESE
Cosmos 2315 Rocket 4.5 05:07:44 36° WSW 05:08:53 39° WNW 05:14:44 10° N
COSMOS 2406 3.2 05:08:57 29° SSW 05:12:01 85° ESE 05:17:49 10° NNE
Cosmos 2285 Rocket 4.5 05:05:40 10° NNW 05:12:03 63° ENE 05:18:21 10° SSE
Cosmos 1703 Rocket 3.8 05:12:39 19° S 05:15:48 69° E 05:20:15 10° NNE
Cosmos 389 Rocket 3.1 05:17:29 40° NW 05:17:29 40° NW 05:20:20 10° N
Sich 1 Rocket 3.4 05:13:42 10° N 05:18:05 80° W 05:22:01 13° S
ARIANE 5 R/B 4.1 05:16:58 10° NNW 05:20:31 19° WNW 05:20:44 19° WNW
Cosmos 1184 Rocket 4.3 05:20:51 10° NNW 05:22:41 25° NW 05:22:41 25° NW
Cosmos 2369 Rocket 3.5 05:20:20 10° NW 05:23:07 21° WNW 05:23:07 21° WNW
Cosmos 1455 4.0 05:26:13 19° WNW 05:26:13 19° WNW 05:28:14 10° NNW
SeaSat 1 2.4 05:21:19 10° SSE 05:26:11 64° WSW 05:31:05 10° NNW
CZ-4B DEB 4.1 05:22:15 10° NNE 05:27:44 81° WNW 05:32:22 15° SSW
CZ-4B R/B 3.0 05:23:56 10° N 05:29:13 72° WNW 05:33:13 18° SSW
USA 234 4.4 05:25:28 10° NNE 05:30:59 30° NNW 05:35:18 15° W
Geosat 4.2 05:29:38 10° NNE 05:34:41 73° ESE 05:39:22 12° SSW
PSLV R/B 4.5 05:32:05 10° N 05:35:30 33° WNW 05:36:16 30° W
SL-16 R/B 3.8 05:37:13 19° W 05:37:13 19° W 05:41:17 10° NW
Resurs 1-4 Rocket 3.7 05:35:34 10° NNW 05:38:46 16° WNW 05:39:46 16° WNW
COSMOS 2487 3.2 05:35:36 11° S 05:38:57 54° ESE 05:42:29 10° NNE
PSLV R/B 3.8 05:34:52 10° NNE 05:39:15 73° ESE 05:43:37 10° S
CZ-2C R/B 4.0 05:38:16 10° S 05:42:29 41° W 05:46:41 10° NNW
GPS 2-05 Rocket1 3.9 05:43:30 23° SSW 05:44:53 32° SSE 05:47:51 10° E
Cosmos 1943 Rocket 2.6 05:42:32 10° NW 05:47:46 39° WSW 05:52:56 10° S
Cosmos 1190 Rocket 3.9 05:45:57 11° SSW 05:50:55 73° WNW 05:56:08 10° NNE
Thor Agena Rocket 3.5 05:47:15 10° S 05:52:19 62° WSW 05:57:28 10° NNW
ADEOS II 2.1 05:48:25 10° NNE 05:53:42 84° ESE 05:58:57 10° SSW
Okean 1-7 2.9 05:50:03 10° SSW 05:54:18 68° W 05:58:38 10° N
Okean 2 Rocket 3.0 05:51:09 10° N 05:55:40 82° W 06:00:10 10° S
Nadezhda 1 Rocket 4.2 05:50:07 10° SSW 05:56:08 50° W 06:02:16 10° N
Cosmos 1408 3.3 05:53:04 10° NNW 05:56:28 33° W 05:59:52 10° SSW
SL-27 R/B 4.3 06:00:36 14° W 06:01:39 16° WNW 06:03:58 10° NNW
Aureole 3 Rocket 4.1 05:54:46 10° SSW 06:02:03 54° W 06:07:17 10° N
Cosmos 1992 Rocket 4.1 05:57:25 10° NNW 06:02:28 51° WSW 06:07:30 10° S
USA 32 4.5 05:58:13 10° SSW 06:03:07 41° W 06:08:04 10° NNW
Meteor 1-31 Rocket 3.4 05:59:25 10° NNE 06:03:10 56° E 06:06:54 10° S
Cosmos 1825 3.1 06:00:58 10° NNW 06:04:10 26° W 06:07:23 10° SSW
Centaur D-1A AC-31 2.6 05:58:26 13° W 06:05:35 34° SSW 06:09:02 10° SE
ADEOS Rocket 3.6 05:59:38 10° N 06:07:21 71° WNW 06:14:59 10° SSW
Cosmos 2181 Rocket 4.2 06:01:26 10° S 06:07:53 87° E 06:14:20 10° N
Cosmos 1954 Rocket 4.2 06:05:16 10° S 06:10:24 75° ESE 06:15:36 10° NNE
CENTAUR R/B 3.6 06:06:29 12° WSW 06:11:18 30° NW 06:17:15 10° NNE
CSL-04 DEB 4.5 06:09:13 10° N 06:13:26 81° WNW 06:17:44 10° SSW
Cosmos 1782 Rocket 4.2 06:13:49 10° NNW 06:17:45 34° W 06:21:38 10° SSW
ATLAS 5 CENTAUR R/B 4.0 06:16:35 10° WNW 06:18:45 13° NW 06:20:59 10° N
Cosmos 1656 Rocket 3.9 06:13:55 10° NW 06:19:04 45° WSW 06:24:11 10° S
AVUM R/B 3.7 06:17:22 10° SW 06:20:23 42° WNW 06:23:34 10° N
NAVSTAR 52 R/B(PAM-D 3.5 06:19:11 10° WNW 06:20:50 42° N 06:22:28 10° E
BREEZE-M DEB (TANK) 4.5 05:57:47 10° WNW 06:21:29 75° SW 06:26:39 10° SE
PSLV R/B 3.7 06:21:12 10° WNW 06:24:37 63° NNE 06:27:58 10° E
Cosmos 2154 Rocket 4.3 06:19:49 10° NNW 06:25:52 49° W 06:31:56 10° SSW
Centaur D-1AR AC-36 4.1 06:23:31 10° SW 06:27:04 14° S 06:29:20 10° SSE
Cosmos 676 Rocket 4.2 06:23:34 10° SSW 06:28:37 55° WNW 06:33:44 10° N
Cosmos 1295 Rocket 4.5 06:22:49 10° N 06:28:58 85° W 06:35:08 10° S
Feng Yun 1-1 Rocket 4.5 06:23:51 10° N 06:28:59 47° WNW 06:34:10 10° SW
